Location: Unspecified
(0.0000°N, 0.0000°E)
Time: 12:13:46
(UTC+02:00)

ADEOS II - Visible Passes

Search period start: 25 October 2014 00:00
Search period end: 03 November 2014 23:00
Orbit: 802 x 802 km, 98.3° (Epoch: 24 October)

Date Brightness Start Highest point End Pass type
(mag) Time Alt. Az. Time Alt. Az. Time Alt. Az.
25 Oct 5.6 06:28:57 10° E 06:30:50 12° ESE 06:32:43 10° SE visible
25 Oct 5.4 20:44:15 10° SW 20:47:06 15° WSW 20:49:57 10° WNW visible
26 Oct 4.3 19:16:38 10° SSW 19:21:11 30° WSW 19:25:43 10° NW visible
27 Oct 3.4 06:13:24 10° NNE 06:18:24 46° ESE 06:23:25 10° S visible
28 Oct 4.8 05:48:26 10° NE 05:52:28 23° ESE 05:56:30 10° SSE visible
29 Oct 5.7 05:25:35 10° E 05:26:33 11° ESE 05:27:32 10° ESE visible
29 Oct 5.3 19:39:36 10° SW 19:42:49 17° WSW 19:46:02 10° WNW visible
30 Oct 4.1 19:12:12 10° SSW 19:16:53 33° WSW 19:21:34 10° NW visible
31 Oct 3.6 06:09:12 10° NNE 06:14:07 42° ESE 06:19:02 10° S visible
01 Nov 5.0 05:44:22 10° NE 05:48:11 21° ESE 05:51:59 10° SSE visible
02 Nov 5.2 19:35:00 10° SW 19:38:31 18° WSW 19:42:02 10° WNW visible
03 Nov 3.9 19:07:47 10° SSW 19:12:35 37° WSW 19:17:23 10° NW visible
